Location: Newark
(34.6283°N, 36.0776°E)
Time: 20:11:11
(UTC+00:00)

Tiros 1 - Pass Details

Date: 19 October 2019
Orbit: 630 x 664 km, 48.4° (Epoch: 22 November)

Event Time Altitude Azimuth Distance (km) Brightness Sun altitude
Exits shadow 01:26:15 17° 7° (N) 1,653 9.3 -29.0°
Drops below altitude 10° 01:28:20 10° 31° (NNE) 2,083 10.2 -28.6°
Sets 01:31:19 0° 50° (NE) 2,996 11.4 -28.0°
